Stations météo

réclame
Mon MeteoGroup
Charleroi/Gosselies, Belgique (6449): Température de l'air & dewpoint: 14.01.2019 12:00:00 - 20.01.2019 12:00:00 (CET)Charleroi/Gosselies, Belgique (6449): Vitesse du vent & gusts: 14.01.2019 12:00:00 - 20.01.2019 12:00:00 (CET)Charleroi/Gosselies, Belgique (6449): Direction du vent: 14.01.2019 12:00:00 - 20.01.2019 12:00:00 (CET)Charleroi/Gosselies, Belgique (6449): reduced air pressure: 14.01.2019 12:00:00 - 20.01.2019 12:00:00 (CET)Charleroi/Gosselies, Belgique (6449): visibility: 14.01.2019 12:00:00 - 20.01.2019 12:00:00 (CET)
Date & Time tt [°C] td [°C] ff [km/h] ff [knt] fx [km/h] fx [knt] dd ppp [hPa] vv [km]
20.01.2019 12:00:00 0,1 -5,1 5 3 11 6 ENE 1016,7 10
20.01.2019 11:00:00 -1,3 -5,6 5 3 11 6 - 1016,4 10
20.01.2019 10:00:00 -3,3 -5,4 5 3 - - ENE 1015,9 10
20.01.2019 09:00:00 -5,3 -6,5 8 4 14 8 ENE 1015,5 8
20.01.2019 08:00:00 -5,3 -7,0 8 4 14 8 ENE 1014,6 10
20.01.2019 07:00:00 -3,7 -6,2 8 4 - - ENE 1013,9 10
20.01.2019 06:00:00 -3,3 -6,1 5 3 11 6 E 1013,5 10
20.01.2019 05:00:00 -3,6 -5,8 9 5 11 6 E 1013,5 10
20.01.2019 04:00:00 -2,7 -5,7 9 5 - - E 1013,4 10
20.01.2019 03:00:00 -2,6 -5,3 11 6 11 6 E 1013,2 10
20.01.2019 02:00:00 -2,0 -5,0 9 5 11 6 E 1013,1 10
20.01.2019 01:00:00 -1,8 -5,1 8 4 - - SE 1013,0 10
20.01.2019 00:00:00 -1,1 -5,1 8 4 18 10 SE 1012,9 10
19.01.2019 23:00:00 -0,9 -4,6 9 5 18 10 SE 1012,8 10
19.01.2019 22:00:00 -0,9 -4,8 9 5 - - SE 1012,7 10
19.01.2019 21:00:00 -0,8 -4,4 8 4 18 10 ESE 1012,6 10
19.01.2019 20:00:00 -0,6 -4,2 9 5 14 8 ESE 1012,5 10
19.01.2019 19:00:00 -0,2 -4,4 9 5 - - E 1012,5 10
19.01.2019 18:00:00 0,5 -4,4 8 4 11 6 ESE 1012,5 10
19.01.2019 17:00:00 1,5 -5,3 5 3 22 12 ESE 1012,5 10
19.01.2019 16:00:00 2,5 -4,9 13 7 - - SSE 1012,7 10
19.01.2019 15:00:00 2,7 -4,1 15 8 25 14 SE 1013,2 10
19.01.2019 14:00:00 2,0 -3,9 15 8 25 14 SE 1013,9 10
19.01.2019 13:00:00 1,5 -4,2 13 7 - - SSE 1014,7 10
19.01.2019 12:00:00 0,9 -3,1 13 7 22 12 SSE 1015,4 10
19.01.2019 11:00:00 -0,5 -3,5 13 7 22 12 SE 1015,9 10
19.01.2019 10:00:00 -1,4 -3,7 11 6 - - SE 1016,0 10
19.01.2019 09:00:00 -2,4 -4,3 11 6 14 8 ESE 1016,2 10
19.01.2019 08:00:00 -2,4 -4,4 11 6 18 10 SE 1016,1 15
19.01.2019 07:00:00 -2,2 -4,2 13 7 - - SE 1016,4 10
19.01.2019 06:00:00 -2,2 -4,1 15 8 22 12 SE 1016,7 10
19.01.2019 05:00:00 -2,0 -4,0 11 6 18 10 SE 1017,1 10
19.01.2019 04:00:00 -1,8 -4,0 11 6 - - SE 1017,6 10
19.01.2019 03:00:00 -1,7 -3,6 9 5 14 8 SE 1018,0 10
19.01.2019 02:00:00 -1,6 -3,1 5 3 7 4 ESE 1018,4 10
19.01.2019 01:00:00 -1,3 -2,8 5 3 - - SE 1018,8 10
19.01.2019 00:00:00 -1,4 -3,0 8 4 11 6 SE 1019,2 10
18.01.2019 23:00:00 -1,3 -2,6 5 3 14 8 E 1019,4 10
18.01.2019 22:00:00 -1,2 -1,9 8 4 - - SSE 1019,5 8
18.01.2019 21:00:00 -0,8 -1,3 5 3 14 8 - 1019,6 8
18.01.2019 20:00:00 -0,4 -1,0 4 2 7 4 S 1019,8 8
18.01.2019 19:00:00 -0,1 -0,7 4 2 - - - 1019,8 8
18.01.2019 18:00:00 0,2 -0,8 5 3 11 6 SSE 1020,0 10
18.01.2019 17:00:00 0,8 -0,7 9 5 14 8 SW 1020,2 10
18.01.2019 16:00:00 2,0 -0,7 9 5 - - S 1020,0 10
18.01.2019 15:00:00 2,2 -0,2 11 6 18 10 SSE 1020,2 10
18.01.2019 14:00:00 1,0 -0,3 13 7 25 14 SSE 1020,7 7
18.01.2019 13:00:00 0,9 0,0 15 8 - - SSE 1021,2 4,5
18.01.2019 12:00:00 0,5 -0,2 9 5 18 10 S 1021,4 3,0
18.01.2019 11:00:00 0,5 -0,3 5 3 11 6 S 1021,4 3,2
18.01.2019 10:00:00 -0,5 -1,0 8 4 - - S 1021,1 2,8
18.01.2019 09:00:00 -0,6 -1,0 9 5 14 8 SW 1020,6 3,5
18.01.2019 08:00:00 -0,8 -1,0 9 5 11 6 SSW 1020,0 3,0
18.01.2019 07:00:00 -0,5 -1,2 5 3 - - WSW 1019,6 3,5
18.01.2019 06:00:00 -0,7 -1,3 8 4 14 8 W 1019,3 5
18.01.2019 05:00:00 -0,4 -1,0 9 5 22 12 W 1019,0 6
18.01.2019 04:00:00 0,3 -0,6 15 8 - - WSW 1018,8 6
18.01.2019 03:00:00 0,0 -0,5 11 6 18 10 WSW 1018,6 3,0
18.01.2019 02:00:00 0,0 -0,2 11 6 18 10 WSW 1017,8 0,5
18.01.2019 01:00:00 0,6 -0,1 9 5 - - W 1017,5 10
18.01.2019 00:00:00 0,7 0,1 9 5 22 12 W 1017,0 10
17.01.2019 23:00:00 0,6 -0,1 11 6 29 16 WNW 1016,4 10
17.01.2019 22:00:00 0,0 -0,3 9 5 - - W 1015,9 8
17.01.2019 21:00:00 0,3 -0,3 16 9 36 19 W 1015,0 3,2
17.01.2019 20:00:00 0,9 -0,1 15 8 36 19 W 1013,9 10
17.01.2019 19:00:00 1,4 -0,9 16 9 - - W 1012,6 1,8
17.01.2019 18:00:00 2,1 -1,5 16 9 32 18 W 1011,6 10
17.01.2019 17:00:00 2,4 -1,3 18 10 32 18 W 1010,8 10
17.01.2019 16:00:00 2,6 0,1 15 8 - - W 1009,7 10
17.01.2019 15:00:00 1,8 0,7 16 9 36 19 WNW 1008,7 10
17.01.2019 14:00:00 2,7 1,5 15 8 43 23 NW 1007,6 8
17.01.2019 13:00:00 4,1 2,1 16 9 - - W 1006,4 10
17.01.2019 12:00:00 3,4 2,4 18 10 40 21 W 1005,9 10
17.01.2019 11:00:00 3,5 2,4 24 13 50 27 WSW 1005,0 10
17.01.2019 10:00:00 4,0 2,8 34 18 - - WSW 1004,4 10
17.01.2019 09:00:00 4,7 3,5 24 13 36 19 SW 1003,6 8
17.01.2019 08:00:00 4,7 3,4 22 12 32 18 SW 1003,5 10
17.01.2019 07:00:00 3,4 2,3 15 8 - - WSW 1004,2 10
17.01.2019 06:00:00 4,6 3,6 16 9 25 14 SW 1004,4 10
17.01.2019 05:00:00 4,5 3,2 18 10 25 14 SW 1004,6 10
17.01.2019 04:00:00 4,9 3,8 18 10 - - SW 1004,7 10
17.01.2019 03:00:00 5,0 3,9 18 10 40 21 WSW 1004,9 10
17.01.2019 02:00:00 4,9 4,0 26 14 43 23 SW 1004,8 8
17.01.2019 01:00:00 4,7 3,8 29 16 - - SW 1004,5 8
17.01.2019 00:00:00 4,3 3,4 28 15 43 23 SSW 1004,8 4,5
16.01.2019 23:00:00 4,2 2,8 28 15 47 25 SSW 1004,8 9
16.01.2019 22:00:00 4,9 1,6 29 16 - - SSW 1005,1 10
16.01.2019 21:00:00 4,9 1,5 29 16 43 23 SSW 1005,4 10
16.01.2019 20:00:00 4,6 1,3 28 15 43 23 SSW 1006,0 10
16.01.2019 19:00:00 4,7 1,1 24 13 - - SSW 1006,4 10
16.01.2019 18:00:00 4,9 0,9 28 15 43 23 SW 1007,2 10
16.01.2019 17:00:00 5,0 0,8 24 13 43 23 SSW 1007,3 10
16.01.2019 16:00:00 5,3 0,7 24 13 - - SSW 1007,5 10
16.01.2019 15:00:00 5,3 0,6 26 14 43 23 SSW 1008,4 10
16.01.2019 14:00:00 5,4 0,2 29 16 43 23 SSW 1009,4 10
16.01.2019 13:00:00 5,1 0,2 26 14 - - SW 1010,8 10
16.01.2019 12:00:00 4,7 0,7 22 12 40 21 SSW 1011,9 10
16.01.2019 11:00:00 4,3 0,8 21 11 36 19 SW 1012,9 10
16.01.2019 10:00:00 4,1 0,7 22 12 - - SSW 1013,4 10
16.01.2019 09:00:00 4,3 1,2 21 11 36 19 SSW 1013,5 10
16.01.2019 08:00:00 4,3 2,0 18 10 29 16 SSW 1014,1 10
16.01.2019 07:00:00 4,7 1,9 21 11 - - SSW 1014,4 10
16.01.2019 06:00:00 5,0 1,7 18 10 29 16 SW 1014,9 15
16.01.2019 05:00:00 5,1 2,2 18 10 29 16 SSW 1015,5 10
16.01.2019 04:00:00 5,2 2,2 18 10 - - SSW 1016,3 10
16.01.2019 03:00:00 5,3 2,5 21 11 32 18 SW 1016,9 10
16.01.2019 02:00:00 5,4 2,6 24 13 36 19 SSW 1017,1 10
16.01.2019 01:00:00 5,4 2,9 22 12 - - SW 1017,7 10
16.01.2019 00:00:00 5,2 3,0 18 10 25 14 SW 1018,2 10
15.01.2019 23:00:00 5,1 3,5 16 9 29 16 SW 1018,8 6
15.01.2019 22:00:00 4,9 3,8 21 11 - - SW 1019,2 3,2
15.01.2019 21:00:00 4,9 4,1 21 11 32 18 SW 1019,7 3,2
15.01.2019 20:00:00 5,2 4,4 21 11 29 16 SW 1020,0 6
15.01.2019 19:00:00 5,2 4,4 16 9 - - SW 1020,1 9
15.01.2019 18:00:00 5,2 4,2 21 11 43 23 SW 1020,5 9
15.01.2019 17:00:00 5,3 3,9 21 11 32 18 SW 1020,6 9
15.01.2019 16:00:00 5,6 3,7 22 12 - - WSW 1020,6 10
15.01.2019 15:00:00 6,0 3,0 22 12 36 19 WSW 1020,7 10
15.01.2019 14:00:00 6,3 2,7 22 12 40 21 WSW 1021,0 10
15.01.2019 13:00:00 6,2 2,8 25 14 - - WSW 1021,3 20
15.01.2019 12:00:00 6,0 3,1 22 12 32 18 WSW 1021,9 10
15.01.2019 11:00:00 5,2 3,1 16 9 25 14 SW 1022,4 10
15.01.2019 10:00:00 4,3 2,6 18 10 - - SW 1022,3 10
15.01.2019 09:00:00 4,4 2,9 16 9 25 14 SW 1022,2 10
15.01.2019 08:00:00 4,1 2,8 16 9 22 12 SW 1022,2 10
15.01.2019 07:00:00 4,0 2,7 15 8 - - SW 1022,2 9
15.01.2019 06:00:00 3,6 2,4 16 9 22 12 SW 1022,5 9
15.01.2019 05:00:00 3,0 2,1 9 5 18 10 SW 1023,0 7
15.01.2019 04:00:00 2,7 2,0 11 6 - - SSW 1023,5 5
15.01.2019 03:00:00 2,6 1,8 11 6 14 8 WSW 1023,3 7
15.01.2019 02:00:00 2,9 2,0 13 7 18 10 WSW 1023,2 8
15.01.2019 01:00:00 3,2 2,0 13 7 - - WSW 1023,2 10
15.01.2019 00:00:00 3,5 2,0 8 4 14 8 WSW 1023,1 10
14.01.2019 23:00:00 3,0 1,5 9 5 14 8 WSW 1023,0 10
14.01.2019 22:00:00 3,1 1,7 5 3 - - W 1022,9 10
14.01.2019 21:00:00 3,2 1,7 8 4 14 8 WSW 1022,7 10
14.01.2019 20:00:00 3,3 1,3 8 4 14 8 W 1022,4 10
14.01.2019 19:00:00 3,4 1,0 8 4 - - WNW 1021,8 10
14.01.2019 18:00:00 4,3 0,7 8 4 18 10 WNW 1021,3 10
14.01.2019 17:00:00 4,9 1,7 9 5 22 12 NW 1020,7 10
14.01.2019 16:00:00 5,0 2,7 11 6 - - WNW 1019,8 10
14.01.2019 15:00:00 5,2 3,6 13 7 43 23 NW 1019,0 10
14.01.2019 14:00:00 4,3 1,9 22 12 43 23 NNW 1018,8 5
14.01.2019 13:00:00 5,2 3,7 14 8 - - NW 1017,8 8
14.01.2019 12:00:00 5,0 3,4 15 8 32 18 NW 1017,2 4,0

tt = Température de l'air
td = dewpoint
ff = Vitesse du vent
fx = gusts
dd = Direction du vent
ppp = reduced air pressure
vv = visibility

stations d'obs. à proximité